New York, NY

7:12 AM EDT on May 27, 2017 (GMT -0400)
La Guardia

Weather History for KLGA - November, 2013

Change the Weather History Date:

Wednesday, November 13, 2013

  Actual Average Record
Temperature  
Mean Temperature 35 °F 49 °F  
Max Temperature 40 °F 56 °F 70 °F (1964)
Min Temperature 30 °F 43 °F 26 °F (1986)
Degree Days  
Heating Degree Days 30 16  
Month to date heating degree days 205 183  
Since 1 July heating degree days 407 455  
Cooling Degree Days 0 0  
Month to date cooling degree days 0 0  
Year to date cooling degree days 1402 1213  
Moisture  
Dew Point 15 °F    
Average Humidity 45    
Maximum Humidity 59    
Minimum Humidity 30    
Precipitation  
Precipitation 0.00 in 0.10 in 1.60 in (1982)
Month to date precipitation 0.17 1.42  
Year to date precipitation 31.23 39.18  
Snow  
Snow 0.00 in 0.00 in - ()
Month to date snowfall T 0.0  
Since 1 July snowfall T 0.0  
Snow Depth 0.00 in    
Sea Level Pressure  
Sea Level Pressure 30.33 in    
Wind  
Wind Speed 14 mph (NW)    
Max Wind Speed 22 mph    
Max Gust Speed 26 mph    
Visibility 10 miles    
Events      
T = Trace of Precipitation, MM = Missing Value Source: NWS Daily Summary

Daily Weather History Graph

Daily Weather History Graph

Search for Another Location

Airport or City:

Trip Planner

Search our weather history database for the weather conditions in past years. The results will help you decide how hot, cold, wet, or windy it might be!

Date:

Astronomy

Nov. 13, 2013 Rise Set
Actual Time 6:40 AM EST 4:38 PM EST
Civil Twilight 6:11 AM EST 5:08 PM EST
Nautical Twilight 5:38 AM EST 5:41 PM EST
Astronomical Twilight 5:05 AM EST 6:13 PM EST
Moon 2:26 PM EST (11/13) 2:29 AM EST (11/13)
Length of Visible Light 10h 57m
Length of Day
9h 58m
Waxing Gibbous, 84% of the Moon is Illuminated
Nov 13
Waxing Gibbous
Nov 17
Full
Nov 25
Last Quarter
Dec 2
New
Dec 9
First Quarter

Hourly Weather History & Observations

Time (EST) Temp. Windchill Dew Point Humidity Pressure Visibility Wind Dir Wind Speed Gust Speed Precip Events Conditions
12:51 AM 32.0 °F 21.6 °F 19.0 °F 59% 30.29 in 10.0 mi WNW 15.0 mph 20.7 mph N/A   Clear
1:51 AM 32.0 °F 21.2 °F 19.0 °F 59% 30.29 in 10.0 mi NW 16.1 mph - N/A   Clear
2:51 AM 30.9 °F 21.2 °F 18.0 °F 59% 30.29 in 10.0 mi NW 12.7 mph 23.0 mph N/A   Scattered Clouds
3:51 AM 30.9 °F 19.8 °F 18.0 °F 59% 30.30 in 10.0 mi NNW 16.1 mph 23.0 mph N/A   Partly Cloudy
4:51 AM 30.0 °F 19.5 °F 17.1 °F 59% 30.31 in 10.0 mi NNW 13.8 mph 21.9 mph N/A   Partly Cloudy
5:51 AM 30.0 °F 18.7 °F 16.0 °F 56% 30.32 in 10.0 mi NW 16.1 mph - N/A   Partly Cloudy
6:51 AM 30.0 °F 20.0 °F 14.0 °F 51% 30.34 in 10.0 mi North 12.7 mph - N/A   Partly Cloudy
7:51 AM 30.0 °F 19.5 °F 15.1 °F 54% 30.37 in 10.0 mi NNW 13.8 mph 23.0 mph N/A   Partly Cloudy
8:51 AM 32.0 °F 20.5 °F 16.0 °F 52% 30.37 in 10.0 mi NNW 18.4 mph 23.0 mph N/A   Partly Cloudy
9:51 AM 32.0 °F 21.6 °F 14.0 °F 48% 30.37 in 10.0 mi NNW 15.0 mph 23.0 mph N/A   Partly Cloudy
10:51 AM 34.0 °F 23.4 °F 14.0 °F 44% 30.35 in 10.0 mi NW 17.3 mph - N/A   Partly Cloudy
11:51 AM 35.1 °F 26.4 °F 12.9 °F 40% 30.34 in 10.0 mi NW 12.7 mph 20.7 mph N/A   Clear
12:51 PM 37.0 °F 26.7 °F 12.9 °F 37% 30.33 in 10.0 mi NW 19.6 mph - N/A   Clear
1:51 PM 39.0 °F 29.3 °F 12.0 °F 33% 30.31 in 10.0 mi NW 19.6 mph - N/A   Clear
2:51 PM 39.0 °F 31.0 °F 10.9 °F 32% 30.31 in 10.0 mi NW 13.8 mph - N/A   Clear
3:51 PM 39.0 °F 32.8 °F 12.0 °F 33% 30.31 in 10.0 mi NW 9.2 mph 20.7 mph N/A   Clear
4:51 PM 39.0 °F 30.6 °F 14.0 °F 36% 30.32 in 10.0 mi NW 15.0 mph 24.2 mph N/A   Partly Cloudy
5:51 PM 37.9 °F 30.9 °F 12.9 °F 36% 30.35 in 10.0 mi West 10.4 mph - N/A   Partly Cloudy
6:51 PM 37.0 °F 29.3 °F 12.9 °F 37% 30.35 in 10.0 mi WNW 11.5 mph - N/A   Clear
7:51 PM 37.0 °F 31.0 °F 14.0 °F 39% 30.35 in 10.0 mi West 8.1 mph - N/A   Clear
8:51 PM 37.0 °F 30.4 °F 14.0 °F 39% 30.33 in 10.0 mi West 9.2 mph - N/A   Clear
9:51 PM 37.9 °F 30.0 °F 15.1 °F 39% 30.32 in 10.0 mi West 12.7 mph 19.6 mph N/A   Clear
10:51 PM 37.9 °F 31.5 °F 17.1 °F 43% 30.30 in 10.0 mi SW 9.2 mph - N/A   Partly Cloudy
11:51 PM 37.0 °F 29.8 °F 18.0 °F 46% 30.29 in 10.0 mi WSW 10.4 mph - N/A   Clear